Погода в Сотнуре

Россия / Республика Марий Эл     56°08′28″N   48°46′31″E
темп.,
°C
ветер,
м/с
пор.,
м/с
влажн.,
%
обл.,
%
осадки,
мм/ч
давл.,
гПа
погр.,
м
23 апреля, пт
пт2300:00+4ююв22955 0.0 102316
03:00+4ю11945 0.0 102410
06:00+5ююв12895 0.0 102563
09:00+11ююв33685 0.0 1025588
12:00+13ююв235495 0.1 10241641
15:00+12юв2461100 0.2 1023402
18:00+11юв377052 0.1 1022241
21:00+7вюв368687 0.3 102296
24 апреля, сб
сб2400:00+6в2789100 0.0 1020125
03:00+5всв3892100 0.0 1018158
06:00+5всв3991100 0.0 1017307
09:00+9в4681100 0.0 1015676
12:00+7вюв4588100 0.1 1013928
15:00+7вюв3692100 0.6 1012450
18:00+7вюв3793100 0.1 1010474
21:00+5вюв4109774 0.1 1008298
25 апреля, вс
вс2500:00+6юв5119495 0.1 1005522
03:00+6ю51096100 1.4 1003718
06:00+4юз51093100 2.3 1004953
09:00+6юз697785 2.6 10051003
12:00+7зюз7106694 0.9 10061583
15:00+4юз61095100 1.9 1008884
18:00+6юз4107692 0.1 1009663
21:00+4зюз51277100 0.2 1011505
26 апреля, пн
пн2600:00+2юз412863 0.0 1013394
03:00+1ююз412885 0.0 1014333
06:00+3ююз4137897 0.0 1013651
09:00+7юз6106582 0.1 10131408
12:00+8зюз7105777 0.4 10141673
15:00+9зюз6847100 0.4 10132171
18:00+7юз355538 0.0 1013178
21:00+4ююв227556 0.0 101213
27 апреля, вт
вт2700:00+3ю1284100 0.0 101111
03:00+2ю1185100 0.0 101010
06:00+4ююв1278100 0.0 100978
09:00+8ююв2462100 0.0 1007801
12:00+12ю584663 0.6 10052010
15:00+12ю694298 0.6 10022507
18:00+6ю5982100 2.8 1001855
21:00+3юз71193100 3.2 10021030